St. Joseph, KS

11:14 PM CDT on September 19, 2019 (GMT -0500)
Rosecrans Memorial

Weather History for KSTJ - July, 2019

Change the Weather History Date:

Thursday, July 25, 2019

  Actual Average Record
Temperature  
Mean Temperature 72 °F 77 °F  
Max Temperature 82 °F 87 °F 108 °F (1936)
Min Temperature 61 °F 67 °F 53 °F (1975)
Degree Days  
Heating Degree Days 0 0  
Month to date heating degree days 0  
Since 1 June heating degree days 8  
Since 1 July heating degree days 0  
Cooling Degree Days 6 12  
Month to date cooling degree days 298  
Year to date cooling degree days 678  
Since 1 June cooling degree days 565  
Growing Degree Days 22 (Base 50)    
Moisture  
Dew Point 61 °F    
Average Humidity 69    
Maximum Humidity 93    
Minimum Humidity 45    
Precipitation  
Precipitation 0.01 in 0.19 in 2.18 in (1981)
Month to date precipitation 4.15  
Year to date precipitation 21.28  
Sea Level Pressure  
Sea Level Pressure 30.11 in    
Wind  
Wind Speed 5 mph (SSE)    
Max Wind Speed 14 mph    
Max Gust Speed -    
Visibility 9 miles    
Events      
T = Trace of Precipitation, MM = Missing Value Source: NWS Daily Summary

Daily Weather History Graph

Daily Weather History Graph

Search for Another Location

Airport or City:

Astronomy

Jul. 25, 2019 Rise Set
Actual Time 6:12 AM CDT 8:39 PM CDT
Civil Twilight 5:41 AM CDT 9:10 PM CDT
Nautical Twilight 5:03 AM CDT 9:48 PM CDT
Astronomical Twilight 4:20 AM CDT 10:30 PM CDT
Moon 12:56 AM CDT (7/25) 2:22 PM CDT (7/25)
Length of Visible Light 15h 29m
Length of Day
14h 27m
Last Quarter, 44% of the Moon is Illuminated
Jul 25
Last Quarter
Jul 31
New
Aug 7
First Quarter
Aug 15
Full
Aug 23
Last Quarter

Hourly Weather History & Observations

Time (CDT) Temp. Heat Index Dew Point Humidity Pressure Visibility Wind Dir Wind Speed Gust Speed Precip Events Conditions
12:53 AM 66.9 °F - 61.0 °F 81% 30.12 in 10.0 mi SW 4.6 mph - N/A   Clear
1:53 AM 64.0 °F - 60.1 °F 87% 30.14 in 9.0 mi Calm Calm - N/A   Clear
2:53 AM 62.1 °F - 59.0 °F 90% 30.12 in 9.0 mi Calm Calm - N/A   Clear
3:53 AM 61.0 °F - 59.0 °F 93% 30.12 in 6.0 mi Calm Calm - N/A   Clear
4:05 AM 61.0 °F - 59.0 °F 93% 30.13 in 1.5 mi Calm Calm - N/A   Clear
4:20 AM 61.0 °F - 59.0 °F 93% 30.14 in 3.0 mi Calm Calm - N/A   Clear
4:53 AM 63.0 °F - 57.9 °F 84% 30.11 in 9.0 mi SE 3.5 mph - N/A   Clear
5:53 AM 61.0 °F - 57.0 °F 87% 30.12 in 9.0 mi SSE 3.5 mph - N/A   Clear
6:53 AM 63.0 °F - 60.1 °F 90% 30.14 in 7.0 mi SE 3.5 mph - N/A   Clear
7:53 AM 69.1 °F - 62.1 °F 78% 30.14 in 8.0 mi Calm Calm - N/A   Clear
8:53 AM 73.9 °F - 63.0 °F 68% 30.15 in 8.0 mi South 6.9 mph - N/A   Clear
9:53 AM 77.0 °F - 63.0 °F 62% 30.14 in 9.0 mi South 11.5 mph - N/A   Clear
10:53 AM 79.0 °F - 62.1 °F 56% 30.14 in 9.0 mi SSW 13.8 mph - N/A   Clear
11:53 AM 80.1 °F 80.7 °F 59.0 °F 48% 30.13 in 10.0 mi South 12.7 mph - N/A   Clear
12:53 PM 80.1 °F 81.1 °F 61.0 °F 52% 30.12 in 10.0 mi SSW 9.2 mph - N/A   Clear
1:53 PM 82.0 °F 82.1 °F 59.0 °F 45% 30.12 in 10.0 mi South 10.4 mph - N/A   Clear
2:53 PM 79.0 °F - 59.0 °F 50% 30.11 in 10.0 mi South 9.2 mph - N/A   Clear
3:53 PM 78.1 °F - 60.1 °F 54% 30.11 in 8.0 mi Calm Calm - N/A   Mostly Cloudy
4:53 PM 77.0 °F - 64.9 °F 66% 30.06 in 10.0 mi SSE 8.1 mph - 0.01 in   Clear
5:53 PM 81.0 °F 82.2 °F 63.0 °F 54% 30.08 in 10.0 mi SSE 8.1 mph - N/A   Clear
6:53 PM 78.1 °F - 61.0 °F 56% 30.07 in 10.0 mi SE 8.1 mph - N/A   Clear
7:53 PM 78.1 °F - 61.0 °F 56% 30.06 in 10.0 mi SE 11.5 mph - N/A   Clear
8:21 PM 77.0 °F - 63.0 °F 62% 30.08 in 10.0 mi SE 9.2 mph - N/A   Partly Cloudy
8:53 PM 75.0 °F - 62.1 °F 64% 30.06 in 9.0 mi SE 9.2 mph - N/A   Clear
9:53 PM 73.0 °F - 61.0 °F 66% 30.06 in 10.0 mi SSE 9.2 mph - N/A   Clear
10:53 PM 75.0 °F - 61.0 °F 62% 30.07 in 10.0 mi South 10.4 mph - N/A   Clear
11:53 PM 73.9 °F - 60.1 °F 62% 30.08 in 10.0 mi South 8.1 mph - N/A   Clear